Time,TemperatureF,DewpointF,PressureIn,WindDirection,WindDirectionDegrees,WindSpeedMPH,WindSpeedGustMPH,Humidity,HourlyPrecipIn,Conditions,Clouds,dailyrainin,SoftwareType,DateUTC
2013-08-08 00:11:00,75.0,72.0,29.92,NE,40,0.0,0.0,90,0.00,,,0.00,,2013-08-08 04:11:00,
2013-08-08 00:33:00,75.0,72.0,29.91,West,276,0.0,1.0,90,0.00,,,0.00,,2013-08-08 04:33:00,
2013-08-08 01:02:00,73.0,71.0,29.91,WNW,297,0.0,1.0,93,0.00,,,0.00,,2013-08-08 05:02:00,
2013-08-08 01:11:00,73.0,71.0,29.91,WNW,297,0.0,0.0,94,0.00,,,0.00,,2013-08-08 05:11:00,
2013-08-08 01:33:00,72.0,70.0,29.92,NNE,32,0.0,1.0,95,0.00,,,0.00,,2013-08-08 05:33:00,
2013-08-08 01:43:00,73.0,72.0,29.93,NE,43,0.0,1.0,96,0.00,,,0.00,,2013-08-08 05:43:00,
2013-08-08 01:52:00,73.0,72.0,29.93,NE,43,0.0,2.0,96,0.00,,,0.00,,2013-08-08 05:52:00,
2013-08-08 02:01:00,73.0,71.0,29.93,NE,43,0.0,0.0,95,0.00,,,0.00,,2013-08-08 06:01:00,
2013-08-08 02:12:00,73.0,71.0,29.93,NE,43,0.0,1.0,95,0.00,,,0.00,,2013-08-08 06:12:00,
2013-08-08 02:22:00,73.0,71.0,29.93,NE,41,1.0,2.0,95,0.00,,,0.00,,2013-08-08 06:22:00,
2013-08-08 02:43:00,73.0,70.0,29.93,NNE,32,4.0,8.0,91,0.00,,,0.00,,2013-08-08 06:43:00,
2013-08-08 02:52:00,73.0,70.0,29.93,NNE,19,4.0,9.0,91,0.00,,,0.00,,2013-08-08 06:52:00,
2013-08-08 03:02:00,72.0,69.0,29.93,ENE,57,3.0,7.0,91,0.00,,,0.00,,2013-08-08 07:02:00,
2013-08-08 03:12:00,72.0,69.0,29.93,NE,39,5.0,8.0,91,0.00,,,0.00,,2013-08-08 07:12:00,
2013-08-08 03:22:00,72.0,69.0,29.93,NE,52,4.0,10.0,90,0.00,,,0.00,,2013-08-08 07:22:00,
2013-08-08 03:32:00,72.0,69.0,29.94,ENE,68,4.0,8.0,90,0.00,,,0.00,,2013-08-08 07:32:00,
2013-08-08 03:43:00,72.0,69.0,29.94,ENE,59,4.0,7.0,90,0.00,,,0.00,,2013-08-08 07:43:00,
2013-08-08 03:53:00,72.0,69.0,29.93,NE,44,4.0,6.0,90,0.00,,,0.00,,2013-08-08 07:53:00,
2013-08-08 04:02:00,72.0,69.0,29.93,ENE,67,2.0,5.0,90,0.00,,,0.00,,2013-08-08 08:02:00,
2013-08-08 04:11:00,72.0,69.0,29.93,NE,34,4.0,6.0,90,0.00,,,0.00,,2013-08-08 08:11:00,
2013-08-08 04:22:00,72.0,69.0,29.93,NE,56,1.0,6.0,91,0.00,,,0.00,,2013-08-08 08:22:00,
2013-08-08 04:32:00,72.0,69.0,29.93,NE,34,3.0,6.0,91,0.00,,,0.00,,2013-08-08 08:32:00,
2013-08-08 04:43:00,71.0,69.0,29.93,ENE,68,3.0,5.0,92,0.00,,,0.00,,2013-08-08 08:43:00,
2013-08-08 04:53:00,71.0,69.0,29.93,ENE,75,3.0,6.0,92,0.00,,,0.00,,2013-08-08 08:53:00,
2013-08-08 05:02:00,71.0,69.0,29.93,NE,41,2.0,7.0,92,0.00,,,0.00,,2013-08-08 09:02:00,
2013-08-08 05:12:00,71.0,69.0,29.93,NE,43,2.0,5.0,93,0.00,,,0.00,,2013-08-08 09:12:00,
2013-08-08 05:22:00,71.0,69.0,29.93,NE,40,3.0,5.0,93,0.00,,,0.00,,2013-08-08 09:22:00,
2013-08-08 05:32:00,71.0,69.0,29.93,ENE,65,1.0,4.0,93,0.00,,,0.00,,2013-08-08 09:32:00,
2013-08-08 05:43:00,71.0,69.0,29.93,ENE,61,2.0,4.0,93,0.00,,,0.00,,2013-08-08 09:43:00,
2013-08-08 05:53:00,71.0,69.0,29.93,NE,40,5.0,6.0,93,0.00,,,0.00,,2013-08-08 09:53:00,
2013-08-08 06:01:00,71.0,69.0,29.93,NNE,19,3.0,7.0,94,0.00,,,0.00,,2013-08-08 10:01:00,
2013-08-08 06:32:00,70.0,68.0,29.92,NE,47,3.0,6.0,95,0.00,,,0.00,,2013-08-08 10:32:00,
2013-08-08 06:43:00,70.0,68.0,29.92,NE,43,1.0,5.0,95,0.00,,,0.00,,2013-08-08 10:43:00,
2013-08-08 06:52:00,69.0,68.0,29.92,East,84,4.0,6.0,95,0.00,,,0.00,,2013-08-08 10:52:00,
2013-08-08 07:02:00,69.0,68.0,29.92,NNE,32,2.0,5.0,95,0.00,,,0.00,,2013-08-08 11:02:00,
2013-08-08 07:11:00,69.0,67.0,29.92,NE,44,3.0,8.0,94,0.00,,,0.00,,2013-08-08 11:11:00,
2013-08-08 07:22:00,69.0,67.0,29.93,ENE,60,2.0,5.0,94,0.00,,,0.00,,2013-08-08 11:22:00,
2013-08-08 07:32:00,69.0,67.0,29.93,NE,41,2.0,5.0,94,0.00,,,0.00,,2013-08-08 11:32:00,
2013-08-08 07:43:00,69.0,67.0,29.93,NNE,16,2.0,4.0,94,0.00,,,0.00,,2013-08-08 11:43:00,
2013-08-08 07:52:00,69.0,67.0,29.93,East,83,3.0,5.0,94,0.00,,,0.00,,2013-08-08 11:52:00,
2013-08-08 08:11:00,70.0,68.0,29.93,NE,47,4.0,8.0,93,0.00,,,0.00,,2013-08-08 12:11:00,
2013-08-08 08:22:00,70.0,68.0,29.93,NNE,18,3.0,7.0,93,0.00,,,0.00,,2013-08-08 12:22:00,
2013-08-08 08:32:00,70.0,68.0,29.94,North,5,4.0,9.0,93,0.00,,,0.00,,2013-08-08 12:32:00,
2013-08-08 08:43:00,70.0,68.0,29.94,ENE,60,3.0,9.0,93,0.00,,,0.00,,2013-08-08 12:43:00,
2013-08-08 08:52:00,70.0,68.0,29.94,NE,40,4.0,6.0,93,0.00,,,0.00,,2013-08-08 12:52:00,
2013-08-08 09:01:00,70.0,68.0,29.95,NE,54,5.0,7.0,92,0.00,,,0.00,,2013-08-08 13:01:00,
2013-08-08 09:11:00,70.0,68.0,29.95,NE,43,4.0,7.0,92,0.00,,,0.00,,2013-08-08 13:11:00,
2013-08-08 09:22:00,70.0,68.0,29.96,NE,52,3.0,4.0,92,0.00,,,0.00,,2013-08-08 13:22:00,
2013-08-08 09:32:00,70.0,67.0,29.96,ENE,70,3.0,6.0,91,0.00,,,0.00,,2013-08-08 13:32:00,
2013-08-08 09:43:00,71.0,69.0,29.97,ENE,70,1.0,7.0,92,0.00,,,0.00,,2013-08-08 13:43:00,
2013-08-08 09:52:00,71.0,69.0,29.97,NE,44,1.0,4.0,92,0.00,,,0.00,,2013-08-08 13:52:00,
2013-08-08 10:02:00,70.0,68.0,29.98,NE,44,1.0,2.0,92,0.00,,,0.00,,2013-08-08 14:02:00,
2013-08-08 10:11:00,70.0,68.0,29.97,ENE,64,3.0,6.0,93,0.04,,,0.04,,2013-08-08 14:11:00,
2013-08-08 10:22:00,70.0,68.0,29.96,East,79,3.0,6.0,94,0.04,,,0.04,,2013-08-08 14:22:00,
2013-08-08 10:32:00,70.0,68.0,29.96,ENE,58,2.0,5.0,95,0.04,,,0.04,,2013-08-08 14:32:00,
2013-08-08 10:43:00,71.0,69.0,29.97,NE,36,3.0,4.0,95,0.04,,,0.04,,2013-08-08 14:43:00,
2013-08-08 10:53:00,71.0,69.0,29.97,ENE,67,3.0,6.0,94,0.04,,,0.04,,2013-08-08 14:53:00,
2013-08-08 11:02:00,71.0,69.0,29.97,ENE,63,5.0,7.0,93,0.04,,,0.04,,2013-08-08 15:02:00,
2013-08-08 11:11:00,72.0,70.0,29.96,ENE,59,3.0,7.0,94,0.00,,,0.04,,2013-08-08 15:11:00,
2013-08-08 11:22:00,72.0,70.0,29.97,NE,51,3.0,5.0,92,0.00,,,0.04,,2013-08-08 15:22:00,
2013-08-08 11:43:00,73.0,71.0,29.97,NNE,27,3.0,8.0,92,0.00,,,0.04,,2013-08-08 15:43:00,
2013-08-08 11:53:00,73.0,70.0,29.98,NE,46,2.0,6.0,91,0.00,,,0.04,,2013-08-08 15:53:00,
2013-08-08 12:02:00,73.0,70.0,29.98,North,5,3.0,5.0,91,0.00,,,0.04,,2013-08-08 16:02:00,
2013-08-08 12:11:00,73.0,70.0,29.98,NNE,25,3.0,5.0,91,0.00,,,0.04,,2013-08-08 16:11:00,
2013-08-08 12:22:00,73.0,70.0,29.98,ENE,58,2.0,5.0,91,0.00,,,0.04,,2013-08-08 16:22:00,
2013-08-08 12:32:00,73.0,71.0,29.98,NE,34,0.0,3.0,92,0.01,,,0.05,,2013-08-08 16:32:00,
2013-08-08 12:42:00,73.0,71.0,29.98,ENE,58,2.0,4.0,92,0.03,,,0.07,,2013-08-08 16:42:00,
2013-08-08 12:52:00,72.0,70.0,29.98,NNE,18,1.0,4.0,94,0.06,,,0.10,,2013-08-08 16:52:00,
2013-08-08 13:11:00,72.0,70.0,29.98,NNE,27,4.0,7.0,95,0.07,,,0.11,,2013-08-08 17:11:00,
2013-08-08 13:21:00,72.0,71.0,29.98,NE,34,2.0,5.0,96,0.07,,,0.11,,2013-08-08 17:21:00,
2013-08-08 13:32:00,71.0,70.0,29.97,NNW,340,5.0,7.0,96,0.13,,,0.18,,2013-08-08 17:32:00,
2013-08-08 13:43:00,71.0,70.0,29.97,NNE,28,3.0,5.0,96,0.12,,,0.19,,2013-08-08 17:43:00,
2013-08-08 13:52:00,71.0,70.0,29.97,NE,40,1.0,4.0,97,0.11,,,0.21,,2013-08-08 17:52:00,
2013-08-08 14:11:00,71.0,70.0,29.96,NE,52,4.0,10.0,97,0.24,,,0.35,,2013-08-08 18:11:00,
2013-08-08 14:22:00,71.0,70.0,29.96,NNE,22,5.0,9.0,98,0.26,,,0.37,,2013-08-08 18:22:00,
2013-08-08 14:32:00,71.0,70.0,29.96,NE,49,5.0,8.0,98,0.19,,,0.37,,2013-08-08 18:32:00,
2013-08-08 14:43:00,71.0,70.0,29.96,ENE,71,4.0,7.0,98,0.18,,,0.37,,2013-08-08 18:43:00,
2013-08-08 14:52:00,71.0,70.0,29.96,NE,36,4.0,7.0,97,0.16,,,0.37,,2013-08-08 18:52:00,
2013-08-08 15:12:00,72.0,71.0,29.96,NNE,26,4.0,8.0,97,0.01,,,0.37,,2013-08-08 19:12:00,
2013-08-08 15:22:00,72.0,71.0,29.96,East,89,3.0,5.0,97,0.00,,,0.37,,2013-08-08 19:22:00,
2013-08-08 15:32:00,72.0,71.0,29.96,NE,34,4.0,6.0,97,0.00,,,0.37,,2013-08-08 19:32:00,
2013-08-08 15:43:00,72.0,71.0,29.96,NE,56,3.0,6.0,97,0.00,,,0.37,,2013-08-08 19:43:00,
2013-08-08 16:02:00,73.0,72.0,29.95,ENE,77,3.0,6.0,97,0.00,,,0.37,,2013-08-08 20:02:00,
2013-08-08 16:11:00,73.0,71.0,29.95,NE,34,4.0,8.0,95,0.00,,,0.37,,2013-08-08 20:11:00,
2013-08-08 16:22:00,73.0,71.0,29.95,ENE,64,2.0,5.0,95,0.00,,,0.37,,2013-08-08 20:22:00,
2013-08-08 16:32:00,74.0,72.0,29.95,NE,54,3.0,6.0,94,0.00,,,0.37,,2013-08-08 20:32:00,
2013-08-08 16:42:00,74.0,72.0,29.94,ENE,59,3.0,6.0,94,0.00,,,0.37,,2013-08-08 20:42:00,
2013-08-08 17:01:00,74.0,71.0,29.94,NE,40,4.0,6.0,91,0.00,,,0.37,,2013-08-08 21:01:00,
2013-08-08 17:14:00,75.0,72.0,29.94,NE,51,2.0,4.0,91,0.00,,,0.37,,2013-08-08 21:14:00,
2013-08-08 17:25:00,74.0,71.0,29.94,ENE,65,2.0,5.0,91,0.00,,,0.37,,2013-08-08 21:25:00,
2013-08-08 17:44:00,74.0,71.0,29.94,NE,41,3.0,7.0,91,0.00,,,0.37,,2013-08-08 21:44:00,
2013-08-08 17:53:00,74.0,71.0,29.94,East,79,4.0,6.0,91,0.00,,,0.37,,2013-08-08 21:53:00,
2013-08-08 18:05:00,74.0,71.0,29.94,NNE,13,3.0,5.0,91,0.00,,,0.37,,2013-08-08 22:05:00,
2013-08-08 18:25:00,75.0,72.0,29.93,NE,56,7.0,10.0,90,0.00,,,0.37,,2013-08-08 22:25:00,
2013-08-08 18:47:00,75.0,72.0,29.93,NNE,32,3.0,8.0,91,0.00,,,0.37,,2013-08-08 22:47:00,
2013-08-08 18:56:00,75.0,72.0,29.93,NE,49,4.0,6.0,90,0.00,,,0.37,,2013-08-08 22:56:00,
2013-08-08 19:05:00,75.0,72.0,29.93,NE,44,4.0,7.0,89,0.00,,,0.37,,2013-08-08 23:05:00,
2013-08-08 19:14:00,75.0,72.0,29.93,ENE,65,3.0,7.0,89,0.00,,,0.37,,2013-08-08 23:14:00,
2013-08-08 19:24:00,75.0,72.0,29.93,ENE,64,1.0,7.0,89,0.00,,,0.37,,2013-08-08 23:24:00,
2013-08-08 19:36:00,75.0,71.0,29.93,ENE,67,2.0,7.0,88,0.00,,,0.37,,2013-08-08 23:36:00,
2013-08-08 19:54:00,75.0,72.0,29.94,NNE,25,3.0,5.0,89,0.00,,,0.37,,2013-08-08 23:54:00,
2013-08-08 20:05:00,75.0,71.0,29.94,NE,47,3.0,7.0,88,0.00,,,0.37,,2013-08-09 00:05:00,
2013-08-08 20:14:00,75.0,72.0,29.94,NNE,20,2.0,2.0,89,0.00,,,0.37,,2013-08-09 00:14:00,
2013-08-08 20:24:00,75.0,71.0,29.94,ENE,73,4.0,7.0,88,0.00,,,0.37,,2013-08-09 00:24:00,
2013-08-08 20:34:00,75.0,72.0,29.94,NNE,33,2.0,6.0,89,0.00,,,0.37,,2013-08-09 00:34:00,
2013-08-08 20:45:00,75.0,72.0,29.95,NE,56,3.0,6.0,89,0.00,,,0.37,,2013-08-09 00:45:00,
2013-08-08 20:53:00,75.0,72.0,29.95,NE,34,3.0,6.0,89,0.00,,,0.37,,2013-08-09 00:53:00,
2013-08-08 21:03:00,75.0,72.0,29.95,NE,47,3.0,6.0,89,0.00,,,0.37,,2013-08-09 01:03:00,
2013-08-08 21:15:00,75.0,71.0,29.95,NNE,32,4.0,7.0,88,0.00,,,0.37,,2013-08-09 01:15:00,
2013-08-08 21:25:00,75.0,71.0,29.95,NE,40,6.0,8.0,88,0.00,,,0.37,,2013-08-09 01:25:00,
2013-08-08 21:46:00,74.0,70.0,29.95,NE,37,3.0,6.0,88,0.00,,,0.37,,2013-08-09 01:46:00,
2013-08-08 21:57:00,74.0,71.0,29.95,NE,37,3.0,5.0,89,0.00,,,0.37,,2013-08-09 01:57:00,
2013-08-08 22:04:00,74.0,71.0,29.96,NE,49,3.0,5.0,89,0.00,,,0.37,,2013-08-09 02:04:00,
2013-08-08 22:14:00,74.0,71.0,29.96,NE,44,3.0,7.0,89,0.00,,,0.37,,2013-08-09 02:14:00,
2013-08-08 22:37:00,74.0,71.0,29.96,NE,41,3.0,7.0,89,0.00,,,0.37,,2013-08-09 02:37:00,
2013-08-08 22:46:00,74.0,71.0,29.96,NE,50,4.0,6.0,89,0.00,,,0.37,,2013-08-09 02:46:00,
2013-08-08 22:55:00,74.0,71.0,29.97,NE,34,3.0,4.0,89,0.00,,,0.37,,2013-08-09 02:55:00,
2013-08-08 23:15:00,73.0,70.0,29.96,NE,51,3.0,4.0,90,0.00,,,0.37,,2013-08-09 03:15:00,
2013-08-08 23:24:00,73.0,70.0,29.96,NE,51,3.0,4.0,90,0.00,,,0.37,,2013-08-09 03:24:00,
2013-08-08 23:34:00,73.0,70.0,29.96,ENE,64,2.0,6.0,91,0.00,,,0.37,,2013-08-09 03:34:00,
2013-08-08 23:45:00,73.0,70.0,29.97,North,5,5.0,7.0,91,0.00,,,0.37,,2013-08-09 03:45:00,